Voltar ao catálogo

GLAST

AtivoCiênciaVLEO
NORAD 33053·PAYLOAD·🇺🇸 United States

Lançado Jun 11, 2008 de Cape Canaveral Space Force Station

Loading…

Próximas Passagens (próximas 24 horas)

TLE

AtualizadoSource: Space-Track

Época: Sep 14, 2026, 12:41 UTC

1 33053U 08029A   26257.52908721  .00002807  00000-0  98006-4 0  9993
2 33053  25.5827 303.9449 0007532 302.8822  57.0992 15.24348989  9339

Acompanhe GLAST em tempo real com AllMySat

Download on the App Store